• In Deutschland
  • Länderverzeichnis
  • Für 7 Tage
  • Wassertemperatur
  • Satellitenkarten
  • Wetterkarte
  • Widgets
  • user-avatar
    Anmelden

    Stündliche Wetter Germering

    Heute, 19 Oktober, Donnerstag

    Zeit Temperatur Niederschläge Wind Luftdruck Luftfeuchtigkeit
    00:00 +11°C° 0 mm 1 m/S 714 mmHg 84%
    01:00 +11°C° 0 mm 1 m/S 714 mmHg 84%
    02:00 +10°C° 0 mm 1 m/S 714 mmHg 83%
    03:00 +10°C° 0 mm 1 m/S 714 mmHg 81%
    04:00 +10°C° 0 mm 1 m/S 714 mmHg 80%
    05:00 +10°C° 0 mm 1 m/S 714 mmHg 78%
    06:00 +10°C° 0 mm 1 m/S 714 mmHg 76%
    07:00 +9°C° 0 mm 1 m/S 714 mmHg 74%
    08:00 +12°C° 0 mm 1 m/S 714 mmHg 68%
    09:00 +14°C° 0 mm 1 m/S 714 mmHg 62%
    10:00 +18°C° 0 mm 1 m/S 714 mmHg 56%
    11:00 +19°C° 0 mm 1 m/S 714 mmHg 54%
    12:00 +20°C° 0 mm 1 m/S 714 mmHg 52%
    13:00 +21°C° 0 mm 1 m/S 714 mmHg 50%
    14:00 +20°C° 0 mm 1 m/S 714 mmHg 56%
    15:00 +20°C° 0 mm 1 m/S 714 mmHg 62%
    16:00 +19°C° 0 mm 1 m/S 713 mmHg 67%
    17:00 +16°C° 0 mm 1 m/S 713 mmHg 73%
    18:00 +14°C° 0 mm 1 m/S 713 mmHg 79%
    19:00 +12°C° 0 mm 1 m/S 713 mmHg 85%
    20:00 +12°C° 0 mm 1 m/S 713 mmHg 84%
    21:00 +11°C° 0 mm 1 m/S 713 mmHg 83%
    22:00 +11°C° 0 mm 1 m/S 713 mmHg 82%
    23:00 +10°C° 0 mm 1 m/S 714 mmHg 80%

    Morgen, 20 Oktober, Freitag

    Zeit Temperatur Niederschläge Wind Luftdruck Luftfeuchtigkeit
    00:00 +10°C° 0 mm 1 m/S 714 mmHg 78%
    01:00 +10°C° 0 mm 1 m/S 714 mmHg 76%
    02:00 +10°C° 0 mm 1 m/S 714 mmHg 75%
    03:00 +9°C° 0 mm 1 m/S 714 mmHg 74%
    04:00 +9°C° 0 mm 1 m/S 714 mmHg 74%
    05:00 +8°C° 0 mm 2 m/S 714 mmHg 74%
    06:00 +8°C° 0 mm 2 m/S 715 mmHg 75%
    07:00 +8°C° 0 mm 2 m/S 715 mmHg 75%
    08:00 +10°C° 0 mm 2 m/S 715 mmHg 71%
    09:00 +14°C° 0 mm 2 m/S 716 mmHg 66%
    10:00 +16°C° 0 mm 2 m/S 716 mmHg 62%
    11:00 +17°C° 0 mm 2 m/S 716 mmHg 59%
    12:00 +18°C° 0 mm 2 m/S 716 mmHg 57%
    13:00 +20°C° 0 mm 2 m/S 716 mmHg 55%
    14:00 +19°C° 0 mm 2 m/S 716 mmHg 59%
    15:00 +20°C° 0 mm 1 m/S 716 mmHg 63%
    16:00 +19°C° 0 mm 1 m/S 716 mmHg 67%
    17:00 +16°C° 0 mm 1 m/S 717 mmHg 72%
    18:00 +15°C° 0 mm 1 m/S 717 mmHg 77%
    19:00 +13°C° 0 mm 1 m/S 717 mmHg 81%
    20:00 +13°C° 0 mm 2 m/S 717 mmHg 82%
    21:00 +12°C° 0 mm 2 m/S 717 mmHg 83%
    22:00 +12°C° 0 mm 2 m/S 717 mmHg 83%
    23:00 +12°C° 0 mm 2 m/S 717 mmHg 82%

    übermorgen, 21 Oktober, Samstag

    Zeit Temperatur Niederschläge Wind Luftdruck Luftfeuchtigkeit
    00:00 +10°C° 0 mm 2 m/S 717 mmHg 81%
    01:00 +10°C° 0 mm 2 m/S 717 mmHg 80%
    02:00 +10°C° 0 mm 2 m/S 716 mmHg 78%
    03:00 +11°C° 0 mm 1 m/S 716 mmHg 76%
    04:00 +12°C° 0 mm 1 m/S 716 mmHg 74%
    05:00 +12°C° 0 mm 2 m/S 716 mmHg 72%
    06:00 +12°C° 0 mm 2 m/S 716 mmHg 70%
    07:00 +12°C° 0 mm 2 m/S 716 mmHg 67%
    08:00 +14°C° 0 mm 2 m/S 716 mmHg 64%
    09:00 +16°C° 0 mm 2 m/S 717 mmHg 61%
    10:00 +18°C° 0 mm 2 m/S 717 mmHg 58%
    11:00 +19°C° 0 mm 2 m/S 717 mmHg 56%
    12:00 +20°C° 0 mm 3 m/S 716 mmHg 53%
    13:00 +21°C° 0 mm 3 m/S 716 mmHg 51%
    14:00 +20°C° 0 mm 2 m/S 716 mmHg 56%
    15:00 +19°C° 0 mm 2 m/S 715 mmHg 61%
    16:00 +20°C° 0 mm 1 m/S 715 mmHg 67%
    17:00 +18°C° 0 mm 1 m/S 715 mmHg 70%
    18:00 +15°C° 0 mm 1 m/S 715 mmHg 74%
    19:00 +14°C° 0 mm 1 m/S 715 mmHg 78%
    20:00 +14°C° 0 mm 2 m/S 716 mmHg 80%
    21:00 +13°C° 0 mm 2 m/S 716 mmHg 82%
    22:00 +12°C° 0 mm 3 m/S 716 mmHg 84%
    23:00 +12°C° 0,5 mm 3 m/S 716 mmHg 87%

    22 Oktober, Sonntag

    Zeit Temperatur Niederschläge Wind Luftdruck Luftfeuchtigkeit
    00:00 +11°C° 0,5 mm 3 m/S 717 mmHg 89%
    01:00 +11°C° 0,5 mm 4 m/S 717 mmHg 92%
    02:00 +10°C° 0,7 mm 3 m/S 716 mmHg 92%
    03:00 +10°C° 0,7 mm 3 m/S 716 mmHg 93%
    04:00 +9°C° 0,7 mm 3 m/S 716 mmHg 93%
    05:00 +9°C° 1 mm 3 m/S 716 mmHg 94%
    06:00 +8°C° 1 mm 3 m/S 716 mmHg 94%
    07:00 +8°C° 1 mm 2 m/S 716 mmHg 95%
    08:00 +8°C° 1,1 mm 3 m/S 716 mmHg 93%
    09:00 +8°C° 1,1 mm 3 m/S 716 mmHg 92%
    10:00 +8°C° 1,1 mm 3 m/S 716 mmHg 91%
    11:00 +8°C° 0,5 mm 3 m/S 716 mmHg 89%
    12:00 +9°C° 0,5 mm 3 m/S 716 mmHg 87%
    13:00 +9°C° 0,5 mm 3 m/S 716 mmHg 85%
    14:00 +8°C° 0,3 mm 3 m/S 716 mmHg 85%
    15:00 +8°C° 0,3 mm 3 m/S 716 mmHg 86%
    16:00 +8°C° 0,3 mm 3 m/S 716 mmHg 86%
    17:00 +7°C° 0,1 mm 3 m/S 717 mmHg 87%
    18:00 +7°C° 0,1 mm 3 m/S 717 mmHg 88%
    19:00 +5°C° 0,1 mm 3 m/S 717 mmHg 89%
    20:00 +5°C° 0,1 mm 3 m/S 717 mmHg 90%
    21:00 +5°C° 0,1 mm 3 m/S 717 mmHg 90%
    22:00 +5°C° 0,1 mm 3 m/S 717 mmHg 91%
    23:00 +5°C° 0,1 mm 3 m/S 717 mmHg 91%

    23 Oktober, Montag

    Zeit Temperatur Niederschläge Wind Luftdruck Luftfeuchtigkeit
    00:00 +5°C° 0,1 mm 3 m/S 718 mmHg 92%
    01:00 +5°C° 0,1 mm 3 m/S 718 mmHg 92%
    02:00 +5°C° 0,2 mm 3 m/S 718 mmHg 93%
    03:00 +5°C° 0,2 mm 3 m/S 718 mmHg 93%
    04:00 +4°C° 0,2 mm 3 m/S 718 mmHg 93%
    05:00 +4°C° 0,2 mm 3 m/S 718 mmHg 93%
    06:00 +4°C° 0,2 mm 3 m/S 719 mmHg 92%
    07:00 +4°C° 0,2 mm 3 m/S 719 mmHg 92%
    08:00 +5°C° 0,2 mm 3 m/S 719 mmHg 90%
    09:00 +6°C° 0,2 mm 4 m/S 719 mmHg 88%
    10:00 +6°C° 0,2 mm 4 m/S 720 mmHg 86%
    11:00 +6°C° 0,2 mm 4 m/S 720 mmHg 87%
    12:00 +7°C° 0,2 mm 3 m/S 720 mmHg 88%
    13:00 +7°C° 0,2 mm 3 m/S 720 mmHg 88%
    14:00 +8°C° 0,2 mm 3 m/S 720 mmHg 88%
    15:00 +8°C° 0,2 mm 3 m/S 720 mmHg 88%
    16:00 +8°C° 0,2 mm 3 m/S 721 mmHg 88%
    17:00 +8°C° 0,2 mm 2 m/S 721 mmHg 90%
    18:00 +7°C° 0,2 mm 2 m/S 722 mmHg 92%
    19:00 +8°C° 0,2 mm 1 m/S 722 mmHg 93%
    20:00 +7°C° 0,1 mm 1 m/S 722 mmHg 94%
    21:00 +6°C° 0,1 mm 2 m/S 722 mmHg 95%
    22:00 +5°C° 0,1 mm 2 m/S 723 mmHg 95%
    23:00 +5°C° 0 mm 2 m/S 723 mmHg 95%

    24 Oktober, Dienstag

    Zeit Temperatur Niederschläge Wind Luftdruck Luftfeuchtigkeit
    00:00 +4°C° 0 mm 2 m/S 723 mmHg 95%
    01:00 +5°C° 0 mm 1 m/S 723 mmHg 95%
    02:00 +5°C° 0 mm 1 m/S 723 mmHg 95%
    03:00 +4°C° 0 mm 1 m/S 723 mmHg 95%
    04:00 +4°C° 0 mm 1 m/S 723 mmHg 94%
    05:00 +4°C° 0 mm 1 m/S 723 mmHg 94%
    06:00 +4°C° 0 mm 1 m/S 723 mmHg 93%
    07:00 +3°C° 0 mm 2 m/S 723 mmHg 93%
    08:00 +5°C° 0 mm 1 m/S 723 mmHg 89%
    09:00 +7°C° 0 mm 1 m/S 723 mmHg 86%
    10:00 +9°C° 0 mm 1 m/S 723 mmHg 82%
    11:00 +10°C° 0 mm 1 m/S 723 mmHg 79%
    12:00 +10°C° 0 mm 1 m/S 723 mmHg 77%
    13:00 +11°C° 0 mm 1 m/S 723 mmHg 74%
    14:00 +11°C° 0 mm 1 m/S 722 mmHg 77%
    15:00 +10°C° 0 mm 1 m/S 722 mmHg 81%
    16:00 +9°C° 0 mm 0 m/S 722 mmHg 84%
    17:00 +9°C° 0,1 mm 1 m/S 722 mmHg 86%
    18:00 +9°C° 0,1 mm 1 m/S 723 mmHg 88%
    19:00 +8°C° 0,1 mm 1 m/S 723 mmHg 89%
    20:00 +8°C° 0 mm 1 m/S 723 mmHg 89%
    21:00 +8°C° 0 mm 1 m/S 723 mmHg 89%
    22:00 +8°C° 0 mm 1 m/S 723 mmHg 89%
    23:00 +7°C° 0 mm 1 m/S 723 mmHg 90%
    Mehr zeigen